Language selection

My Weather Profile Weather Topics  | 

Central Coast from McInnes Island to Pine Island: Past 24 Hour Conditions

 

South Nomad - 46036

08:00 AM PDT 30 July 2021Buoy position: 48.35N 133.95W
Disclaimer

This table is a summary of hourly weather conditions for the past 24 hours.
Please note that these observations might not always be representative of weather conditions over their associated marine area.

Date / Time
(PDT)
Wind(knots) Wave height(m) Wave period(s) Pressure(kPa) Air tempC) Water tempC)
30 July 2021
8:00 S 8 gust 10 1.1 14.0 101.7 16 16
7:00 SSW 8 gust 10 1.1 6.0 101.7 16 16
6:00 SSE 10 gust 12 1.0 17.0 101.6 16 16
5:00 SSE 12 gust 13 1.1 13.0 101.6 16 16
4:00 SSE 12 gust 13 N/A 14.0 101.6 16 16
3:00 SSE 12 gust 16 1.1 14.0 101.7 16 16
2:00 SSE 12 gust 13 1.1 14.0 101.7 16 16
1:00 SE 12 gust 13 1.1 14.0 101.7 16 16
0:00 SE 12 gust 13 1.0 13.0 101.7 16 16
29 July 2021
23:00 SE 12 gust 13 1.0 13.0 101.8 16 16
22:00 SSE 12 gust 16 1.0 14.0 101.8 16 16
21:00 SSE 10 gust 12 0.9 14.0 101.8 16 16
20:00 SSE 12 gust 13 0.9 14.0 101.8 16 16
19:00 SSE 12 gust 13 N/A 14.0 101.8 16 16
18:00 SSE 12 gust 13 0.9 13.0 101.8 16 16
17:00 SSE 12 gust 13 0.9 14.0 101.8 16 16
16:00 SSE 10 gust 12 0.9 14.0 101.9 16 16
15:00 SSE 12 gust 13 N/A 14.0 101.9 16 16
14:00 SSE 10 gust 12 0.9 14.0 101.9 16 16
13:00 SSE 10 gust 12 0.9 14.0 101.9 16 16
12:00 S 10 gust 12 0.9 14.0 101.9 16 16
11:00 S 8 gust 10 N/A 14.0 101.9 16 16
10:00 S 8 gust 10 1.0 13.0 101.9 16 16
9:00 S 8 gust 10 1.0 14.0 101.9 16 16
8:00 S 6 gust 8 1.0 14.0 101.9 16 16

Zoom-in to make a selection

Map of Pacific - South Coast marine weather areas South Nomad - 46036 Sentry Shoal - 46131 South Brooks - 46132 Halibut Bank - 46146 South Moresby - 46147 South Hecate Strait - 46185 West Sea Otter - 46204 La Perouse Bank - 46206 East Dellwood - 46207 Georgia Strait - 46303 English Bay - 46304 Discovery Island Esquimalt Harbour Kelp Reefs Malahat Race Rocks Lightstation Saturna Island Sheringham Point University of Victoria Victoria Gonzales Victoria Int'l Airport Ballenas Islands Campbell River Airport Comox Airport Entrance Island Fanny Island Nanaimo Airport Port Hardy Airport Sisters Islets Estevan Point Port Alberni Sartine Island Solander Island Tofino Airport Grief Point Howe Sound - Pam Rocks Powell River Airport Sechelt Squamish Airport Cape St.James Bella Bella Airport Bella Coola Airport Cathedral Point Herbert Island Point Atkinson Sand Heads Lightstation Tsawwassen Ferry Terminal Vancouver Int'l Airport Vancouver Harbour West Vancouver
Legend:
buoy Buoy
land station Land Station

Pacific - South Coast Area

Another Region

What we are doing

Date modified: